K7JKM Weather Reports


time (UTC)temp
C
wind
direction
speed
KPH
gust
KPH
rain 1hr
cm
rain 24hr
cm
rain mn
cm
humidity
%
barometer
mb
20260902084520 15 106 0.0 3.2 0.00 0.00 0.00 64 1011.4
20260902083015 14 114 0.0 0.0 0.00 0.00 0.00 65 1011.6
20260902081513 14 114 0.0 0.0 0.00 0.00 0.00 67 1011.8
20260902080010 14 114 0.0 0.0 0.00 0.00 0.00 66 1011.8
20260902074535 15 114 0.0 0.0 0.00 0.00 0.00 66 1011.8
20260902073029 15 114 0.0 1.6 0.00 0.00 0.00 66 1011.8
20260902071529 15 112 0.0 1.6 0.00 0.00 0.00 66 1011.9
20260902070023 15 128 0.0 0.0 0.00 0.00 0.00 65 1012.0
20260902064522 16 128 0.0 0.0 0.00 0.00 0.00 64 1012.1
20260902063017 16 109 0.0 3.2 0.00 0.00 0.00 63 1012.2
20260902061544 16 96 0.0 1.6 0.00 0.00 0.00 63 1012.3
20260902060035 16 132 0.0 1.6 0.00 0.00 0.00 62 1012.3
20260902054535 16 179 0.0 1.6 0.00 0.00 0.00 62 1012.4
20260902053008 16 131 0.0 0.0 0.00 0.00 0.00 62 1012.6
20260902051504 16 132 0.0 0.0 0.00 0.00 0.00 62 1012.7
20260902050009 16 133 0.0 0.0 0.00 0.00 0.00 61 1012.7
20260902044504 16 138 0.0 1.6 0.00 0.00 0.00 61 1012.6
20260902043003 16 146 0.0 1.6 0.00 0.00 0.00 61 1012.5
20260902041516 17 124 0.0 1.6 0.00 0.00 0.00 60 1012.6
20260902040013 17 144 0.0 1.6 0.00 0.00 0.00 60 1012.6
20260902034512 17 151 0.0 1.6 0.00 0.00 0.00 59 1012.5
20260902033012 17 132 0.0 4.8 0.00 0.00 0.00 59 1012.5
20260902031504 17 195 0.0 1.6 0.00 0.00 0.00 59 1012.5
20260902030004 17 110 0.0 0.0 0.00 0.00 0.00 58 1012.3
20260902024504 17 160 0.0 0.0 0.00 0.00 0.00 58 1012.3
20260902023021 17 143 0.0 0.0 0.00 0.00 0.00 58 1012.4
20260902021524 17 133 0.0 1.6 0.00 0.00 0.00 58 1012.3
20260902020014 17 111 0.0 1.6 0.00 0.00 0.00 58 1012.3
20260902014512 17 114 0.0 1.6 0.00 0.00 0.00 58 1012.3
20260902013009 17 195 0.0 3.2 0.00 0.00 0.00 58 1012.3
20260902011504 18 231 0.0 3.2 0.00 0.00 0.00 57 1012.3
20260902010007 18 177 0.0 4.8 0.00 0.00 0.00 56 1011.9
20260902004526 18 299 0.0 6.4 0.00 0.00 0.00 56 1011.9
20260902003021 18 283 0.0 6.4 0.00 0.00 0.00 56 1011.8
20260902001516 18 309 1.6 6.4 0.00 0.00 0.00 56 1011.8
20260902000017 18 296 0.0 4.8 0.00 0.00 0.00 56 1011.7
20260901234510 19 283 0.0 3.2 0.00 0.00 0.00 51 1011.7
20260901233016 19 212 0.0 4.8 0.00 0.00 0.00 52 1011.7
20260901231506 19 86 0.0 1.6 0.00 0.00 0.00 51 1011.8
20260901230033 19 32 0.0 1.6 0.00 0.00 0.00 52 1011.9
20260901224535 19 148 0.0 0.0 0.00 0.00 0.00 53 1011.9
20260901223025 19 139 0.0 3.2 0.00 0.00 0.00 53 1011.9
20260901221520 19 188 0.0 1.6 0.00 0.00 0.00 52 1012.0
20260901220015 19 161 0.0 3.2 0.00 0.00 0.00 52 1011.9
20260901214511 20 119 0.0 3.2 0.00 0.00 0.00 52 1011.8
20260901213011 20 113 0.0 1.6 0.00 0.00 0.00 52 1011.8
20260901211534 20 200 0.0 3.2 0.00 0.00 0.00 52 1011.7
20260901210031 20 106 0.0 1.6 0.00 0.00 0.00 53 1011.7
20260901204527 20 146 0.0 1.6 0.00 0.00 0.00 52 1011.7
20260901203026 20 233 0.0 1.6 0.00 0.00 0.00 53 1011.8
20260901201520 20 245 0.0 6.4 0.00 0.00 0.00 53 1011.8
20260901200009 19 160 0.0 1.6 0.00 0.00 0.00 54 1011.9
20260901194512 19 165 0.0 1.6 0.00 0.00 0.00 54 1012.0
20260901193008 19 110 0.0 4.8 0.00 0.00 0.00 53 1012.0
20260901191509 20 167 0.0 6.4 0.00 0.00 0.00 55 1012.2
20260901190008 19 205 0.0 4.8 0.00 0.00 0.00 55 1012.4
20260901184504 18 116 0.0 1.6 0.00 0.00 0.00 57 1012.4
20260901183003 18 137 0.0 6.4 0.00 0.00 0.00 56 1012.5
20260901181511 19 175 0.0 1.6 0.00 0.00 0.00 55 1012.5
20260901180012 20 236 0.0 8.0 0.00 0.00 0.00 54 1012.5
20260901174518 19 216 0.0 8.0 0.00 0.00 0.00 58 1012.7
20260901173023 18 118 0.0 9.7 0.00 0.00 0.00 60 1012.7
20260901171509 17 146 0.0 4.8 0.00 0.00 0.00 61 1012.6
20260901170008 17 121 0.0 4.8 0.00 0.00 0.00 63 1012.6
20260901164506 16 135 0.0 6.4 0.00 0.00 0.00 64 1012.7
20260901163017 16 158 0.0 6.4 0.00 0.00 0.00 65 1012.8
20260901161519 16 70 0.0 3.2 0.00 0.00 0.00 65 1013.0
20260901160019 16 119 0.0 3.2 0.00 0.00 0.00 65 1012.9
20260901154521 16 117 0.0 3.2 0.00 0.00 0.00 65 1012.8
20260901153017 16 94 0.0 3.2 0.00 0.00 0.00 64 1012.8
20260901151521 16 162 0.0 1.6 0.00 0.00 0.00 63 1012.8
20260901150012 16 110 0.0 4.8 0.00 0.00 0.00 63 1012.7
20260901144523 15 134 0.0 3.2 0.00 0.00 0.00 63 1012.5
20260901143028 15 186 0.0 8.0 0.00 0.00 0.00 63 1012.5
20260901141527 15 116 0.0 0.0 0.00 0.00 0.00 64 1012.4
20260901140031 15 117 0.0 0.0 0.00 0.00 0.00 64 1012.3
20260901134522 15 117 0.0 0.0 0.00 0.00 0.00 64 1012.2
20260901133025 15 116 0.0 0.0 0.00 0.00 0.00 64 1012.2
20260901131515 15 117 0.0 0.0 0.00 0.00 0.00 64 1012.2
20260901130013 15 116 0.0 0.0 0.00 0.00 0.00 64 1012.1
20260901124512 15 117 0.0 1.6 0.00 0.00 0.00 64 1012.0
20260901123004 15 113 0.0 0.0 0.00 0.00 0.00 65 1012.0
20260901121503 15 110 0.0 3.2 0.00 0.00 0.00 64 1012.1
20260901120003 15 117 0.0 0.0 0.00 0.00 0.00 65 1012.0
20260901114523 15 112 0.0 1.6 0.00 0.00 0.00 65 1012.0
20260901113021 15 106 0.0 0.0 0.00 0.00 0.00 65 1011.8
20260901111517 15 115 0.0 1.6 0.00 0.00 0.00 65 1011.8
20260901110023 14 116 0.0 0.0 0.00 0.00 0.00 66 1011.6
20260901104510 14 164 0.0 0.0 0.00 0.00 0.00 67 1011.6
20260901103011 13 164 0.0 0.0 0.00 0.00 0.00 67 1011.5
20260901101529 13 164 0.0 0.0 0.00 0.00 0.00 67 1011.5
20260901100031 13 137 0.0 1.6 0.00 0.00 0.00 67 1011.5
20260901094527 14 136 0.0 1.6 0.00 0.00 0.00 67 1011.5
20260901093023 14 141 0.0 0.0 0.00 0.00 0.00 67 1011.6
20260901091516 14 86 0.0 1.6 0.00 0.00 0.00 67 1011.4
20260901090016 14 342 0.0 0.0 0.00 0.00 0.00 67 1011.3